sat.trackr.live / text

‹ back to catalog

STARLINK-33593

NORAD 62780 · 2025-015Y

PAYLOAD ACTIVE UNKNOWN

§ Identity

Operator
Country
US
Launch date
2025-01-21
Launch site
AFWTR
Launch vehicle
Mass (kg)
RCS (m²)

Purposes: comms

External: N2YO · Heavens-Above · Gunter

§ Orbital elements

Epoch: 2026-09-21T21:10:35.397696Z

Period
93.85 min
Inclination
53.1573°
Eccentricity
0.0001074
Mean motion
15.34391332 rev/d
Perigee alt
462.0 km
Apogee alt
463.5 km
Semi-major
6,840.9 km
B*
2.7943e-4
RAAN
127.2934°
Arg perigee
93.8710°
Mean anomaly
266.2415°
Rev number
9,457

§ Raw data

STARLINK-335931 62780U 25015Y   26264.88235414  .00009074  00000+0  27943-3 0  99982 62780  53.1573 127.2934 0001074  93.8710 266.2415 15.34391332 94572

JSON: /api/v1/satellites/62780 · /tle

For live sub-satellite position, see the globe view (requires WebGL).

§ Visibility from observer

Set your observer location to see the next 7 days of passes ≥ 10°. The values pass through the URL so the page stays shareable.

No JS? Fill the form by hand. The geolocation button needs JavaScript.